Home   Weather   Haugesund   Past weeks

Flag for Norway Past Weather in Haugesund, Norway — Yesterday and Last 2 Weeks

Now
41 °F

Passing clouds.


Feels Like: 39 °F
Forecast: 38 / 51 °F
Wind: 3 mph from North

Location: Karmoy

Current Time: Apr 29, 2017 at 2:04:01 am

Latest Report: Apr 29, 2017 at 1:20 am


Visibility: N/A

Pressure: 29.98 "Hg

Humidity: 66%

Dew Point: 30 °F

Location of HaugesundLocation

Past Weather in Haugesund — Graph

°F

Haugesund Temperature Yesterday

Maximum temperature yesterday: 50 °F (at 12:50 pm)
Minimum temperature yesterday: 37 °F (at 4:20 am)
Average temperature yesterday: 44 °F

High & Low Weather Summary for the Past Weeks

 TemperatureHumidityPressure
High50 °F (Apr 28, 12:50 pm)100% (Apr 14, 6:50 am)30.57 "Hg (Apr 14, 6:50 am)
Low30 °F (Apr 14, 6:50 am)34% (Apr 28, 12:20 pm)29.47 "Hg (Apr 24, 2:20 am)
Average42 °F76%29.95 "Hg
* Reported Apr 14 12:20 am — Apr 29 12:50 am, Haugesund, Weather by CustomWeather, © 2017

Note: Actual official high and low records may vary slightly from our data, if they occured in-between our weather recording intervals... More about our weather records

Advertising

Haugesund Weather History for the Previous 24 Hours

Scroll right to see more
 ConditionsComfort  
Time TempWeatherWind HumidityBarometerVisibility
12:50 am
Sat, Apr 29
43 °FPassing clouds.3 mph61%29.95 "HgN/A
12:20 am45 °FMostly cloudy.5 mph57%29.95 "HgN/A
11:50 pm
Fri, Apr 28
43 °FOvercast.3 mph61%29.95 "HgN/A
11:20 pm43 °FOvercast.5 mph61%29.95 "HgN/A
10:50 pm45 °FPartly cloudy.5 mph61%29.95 "HgN/A
10:20 pm45 °FPartly cloudy.6 mph57%29.92 "HgN/A
9:50 pm45 °FPassing clouds.8 mph61%29.92 "HgN/A
9:20 pm45 °FScattered showers. Broken clouds.10 mph61%29.92 "HgN/A
8:50 pm46 °FScattered showers. Partly sunny.9 mph53%29.92 "HgN/A
7:50 pm46 °FPartly sunny.8 mph50%29.92 "HgN/A
7:20 pm48 °FPartly sunny.8 mph46%29.92 "HgN/A
6:50 pm46 °FPartly sunny.5 mph50%29.92 "HgN/A
6:20 pm46 °FPartly sunny.10 mph53%29.92 "HgN/A
5:50 pm48 °FPartly sunny.16 mph46%29.92 "HgN/A
5:20 pm48 °FPartly sunny.13 mph43%29.89 "HgN/A
4:50 pm48 °FPartly sunny.15 mph43%29.89 "HgN/A
4:20 pm48 °FPartly sunny.12 mph43%29.89 "HgN/A
3:50 pm48 °FPartly sunny.12 mph46%29.89 "HgN/A
3:20 pm46 °FPartly sunny.7 mph50%29.89 "HgN/A
2:20 pm50 °FSunny.20 mph37%29.89 "Hg10 mi
1:50 pm50 °FPassing clouds.10 mph37%29.89 "HgN/A
1:20 pm50 °FSunny.10 mph35%29.89 "Hg10 mi
12:50 pm50 °FPassing clouds.8 mph35%29.89 "HgN/A
12:20 pm48 °FPassing clouds.10 mph34%29.89 "HgN/A
11:50 am48 °FPassing clouds.9 mph37%29.89 "HgN/A
11:20 am46 °FSunny.13 mph37%29.89 "Hg10 mi
10:50 am48 °FSunny.12 mph37%29.89 "Hg10 mi
10:20 am46 °FSunny.10 mph40%29.92 "Hg10 mi
9:20 am45 °FSunny.9 mph42%29.89 "Hg10 mi
8:50 am45 °FSunny.10 mph49%29.89 "Hg10 mi
8:20 am43 °FSunny.12 mph57%29.89 "Hg10 mi
7:50 am41 °FSunny.10 mph61%29.89 "Hg10 mi
7:20 am39 °FSunny.12 mph70%29.89 "Hg10 mi
6:50 am37 °FPassing clouds.6 mph81%29.86 "HgN/A
6:20 am37 °FChilly.6 mph81%29.86 "HgN/A
5:50 am37 °FPartly sunny.9 mph81%29.86 "HgN/A
5:20 am37 °FMostly cloudy.13 mph81%29.86 "HgN/A
4:50 am37 °FPassing clouds.7 mph81%29.86 "HgN/A
4:20 am37 °FPassing clouds.9 mph81%29.83 "HgN/A
3:20 am39 °FPassing clouds.13 mph81%29.83 "HgN/A
2:50 am39 °FOvercast.9 mph81%29.83 "HgN/A
2:20 am41 °FPartly cloudy.9 mph81%29.80 "HgN/A
Weather by CustomWeather, © 2017

See weather overviewHow to use our weather pages